Location: Unspecified
(44.0704°N, 0.0000°E)
Time: 21:29:54
(UTC+00:00)

Tiangong 2 - Visible Passes

Search period start: 24 June 2019 00:00
Search period end: 04 July 2019 00:00
Orbit: 376 x 388 km, 42.8° (Epoch: 24 June)

Date Brightness Start Highest point End Pass type
(mag) Time Alt. Az. Time Alt. Az. Time Alt. Az.
24 Jun 3.6 03:38:25 10° S 03:39:48 12° SSE 03:41:13 10° ESE visible
26 Jun 2.9 03:13:50 12° SSW 03:15:50 19° SSE 03:18:10 10° ESE visible
27 Jun 3.5 02:16:12 12° SE 02:16:12 12° SE 02:17:06 10° ESE visible
28 Jun 2.2 02:50:40 21° SSW 02:51:53 28° SSE 02:54:40 10° E visible
29 Jun 3.3 01:52:58 16° ESE 01:52:58 16° ESE 01:54:07 10° ESE visible
29 Jun 1.3 03:25:07 11° WSW 03:28:08 55° SSE 03:31:15 10° E visible
30 Jun 1.6 02:27:24 36° SSW 02:27:57 40° SSE 02:30:58 10° E visible
01 Jul 3.4 01:29:41 16° ESE 01:29:41 16° ESE 01:30:35 10° E visible
01 Jul 1.0 03:01:50 15° WSW 03:04:16 66° S 03:07:25 10° E visible
02 Jul 1.2 02:04:09 54° SSE 02:04:09 54° SSE 02:07:09 10° E visible
02 Jul 1.1 03:37:31 10° W 03:40:39 67° S 03:43:48 10° ESE visible
03 Jul 3.8 01:06:30 12° E 01:06:30 12° E 01:06:51 10° E visible
03 Jul 0.9 02:38:39 23° W 02:40:25 71° S 02:43:34 10° E visible
